| time (UTC) | temp F | wind direction | speed knots | gust knots | rain 1hr in | rain 24hr in | rain mn in | humidity % | barometer mb |
| 20260904024044 | 80 | 103 | 0.0 | 0.0 | 0.00 | 0.00 | 0.00 | ||
| 20260904023545 | 79 | 103 | 0.0 | 0.0 | 0.00 | 0.00 | 0.00 | ||
| 20260904023042 | 79 | 103 | 0.0 | 0.0 | 0.00 | 0.00 | 0.00 | ||
| 20260904022543 | 80 | 103 | 0.0 | 0.0 | 0.00 | 0.00 | 0.00 | ||
| 20260904022041 | 80 | 103 | 0.0 | 0.0 | 0.00 | 0.00 | 0.00 | ||
| 20260904021539 | 80 | 103 | 0.0 | 0.0 | 0.00 | 0.00 | 0.00 | ||
| 20260904021038 | 80 | 103 | 0.0 | 0.0 | 0.00 | 0.00 | 0.00 | ||
| 20260904020539 | 80 | 103 | 0.0 | 0.0 | 0.00 | 0.00 | 0.00 | ||
| 20260904020035 | 80 | 103 | 0.0 | 0.0 | 0.00 | 0.00 | 0.00 | ||
| 20260904015535 | 80 | 103 | 0.0 | 0.0 | 0.00 | 0.00 | 0.00 | ||
| 20260904015034 | 80 | 103 | 0.0 | 0.0 | 0.00 | 0.00 | 0.00 | ||
| 20260904014534 | 80 | 103 | 0.0 | 0.0 | 0.00 | 0.00 | 0.00 | ||
| 20260904013529 | 80 | 103 | 0.0 | 0.0 | 0.00 | 0.00 | 0.00 | ||
| 20260904013027 | 81 | 103 | 0.0 | 0.0 | 0.00 | 0.00 | 0.00 | ||
| 20260904012024 | 80 | 103 | 0.0 | 0.0 | 0.00 | 0.00 | 0.00 | ||
| 20260904011021 | 80 | 103 | 0.0 | 0.0 | 0.00 | 0.00 | 0.00 | ||
| 20260904010522 | 81 | 103 | 0.0 | 0.0 | 0.00 | 0.00 | 0.00 | ||
| 20260904010019 | 81 | 103 | 0.0 | 0.0 | 0.00 | 0.00 | 0.00 | ||
| 20260904005519 | 81 | 103 | 0.0 | 0.0 | 0.00 | 0.00 | 0.00 | ||
| 20260904005016 | 80 | 103 | 0.0 | 0.0 | 0.00 | 0.00 | 0.00 | ||
| 20260904004517 | 81 | 103 | 0.0 | 0.0 | 0.00 | 0.00 | 0.00 | ||
| 20260904004015 | 82 | 103 | 0.0 | 0.0 | 0.00 | 0.00 | 0.00 | ||
| 20260904003516 | 82 | 103 | 0.0 | 0.0 | 0.00 | 0.00 | 0.00 | ||
| 20260904003013 | 82 | 103 | 0.0 | 0.0 | 0.00 | 0.00 | 0.00 | ||
| 20260904002514 | 82 | 103 | 0.0 | 0.0 | 0.00 | 0.00 | 0.00 | ||
| 20260904002013 | 83 | 103 | 0.0 | 0.0 | 0.00 | 0.00 | 0.00 | ||
| 20260904001513 | 82 | 103 | 0.0 | 0.0 | 0.00 | 0.00 | 0.00 | ||
| 20260904001011 | 82 | 103 | 0.0 | 0.0 | 0.00 | 0.00 | 0.00 | ||
| 20260904000512 | 83 | 103 | 0.0 | 0.0 | 0.00 | 0.00 | 0.00 | ||
| 20260904000010 | 83 | 103 | 0.0 | 0.0 | 0.00 | 0.00 | 0.00 | ||
| 20260903235007 | 83 | 152 | 0.9 | 1.7 | 0.00 | 0.00 | 0.00 | ||
| 20260903234508 | 83 | 103 | 0.9 | 0.9 | 0.00 | 0.00 | 0.00 | ||
| 20260903234006 | 83 | 146 | 1.7 | 1.7 | 0.00 | 0.00 | 0.00 | ||
| 20260903233507 | 84 | 129 | 1.7 | 1.7 | 0.00 | 0.00 | 0.00 | ||
| 20260903233006 | 83 | 124 | 2.6 | 1.7 | 0.00 | 0.00 | 0.00 | ||
| 20260903232506 | 84 | 159 | 1.7 | 1.7 | 0.00 | 0.00 | 0.00 | ||
| 20260903232004 | 84 | 111 | 1.7 | 0.9 | 0.00 | 0.00 | 0.00 | ||
| 20260903231504 | 85 | 132 | 2.6 | 3.5 | 0.00 | 0.00 | 0.00 | ||
| 20260903230503 | 85 | 138 | 2.6 | 2.6 | 0.00 | 0.00 | 0.00 | ||
| 20260903225502 | 85 | 132 | 5.2 | 6.1 | 0.00 | 0.00 | 0.00 | ||
| 20260903225001 | 85 | 150 | 3.5 | 4.3 | 0.00 | 0.00 | 0.00 | ||
| 20260903224000 | 85 | 38 | 2.6 | 2.6 | 0.00 | 0.00 | 0.00 | ||
| 20260903223501 | 85 | 139 | 0.9 | 3.5 | 0.00 | 0.00 | 0.00 | ||
| 20260903222959 | 85 | 131 | 3.5 | 2.6 | 0.00 | 0.00 | 0.00 | ||
| 20260903222500 | 86 | 122 | 4.3 | 4.3 | 0.00 | 0.00 | 0.00 | ||
| 20260903221958 | 85 | 127 | 5.2 | 4.3 | 0.00 | 0.00 | 0.00 | ||
| 20260903221459 | 85 | 149 | 4.3 | 4.3 | 0.00 | 0.00 | 0.00 | ||
| 20260903220957 | 85 | 150 | 4.3 | 5.2 | 0.00 | 0.00 | 0.00 | ||
| 20260903220458 | 85 | 158 | 4.3 | 7.0 | 0.00 | 0.00 | 0.00 | ||
| 20260903215956 | 85 | 118 | 4.3 | 4.3 | 0.00 | 0.00 | 0.00 | ||
| 20260903215457 | 85 | 98 | 6.1 | 6.1 | 0.00 | 0.00 | 0.00 | ||
| 20260903214456 | 86 | 131 | 5.2 | 4.3 | 0.00 | 0.00 | 0.00 | ||
| 20260903213455 | 86 | 141 | 6.1 | 4.3 | 0.00 | 0.00 | 0.00 | ||
| 20260903212953 | 86 | 146 | 0.9 | 4.3 | 0.00 | 0.00 | 0.00 | ||
| 20260903212454 | 86 | 120 | 6.1 | 6.1 | 0.00 | 0.00 | 0.00 | ||
| 20260903211952 | 87 | 79 | 2.6 | 1.7 | 0.00 | 0.00 | 0.00 | ||
| 20260903211453 | 87 | 158 | 3.5 | 3.5 | 0.00 | 0.00 | 0.00 | ||
| 20260903210949 | 88 | 124 | 4.3 | 6.1 | 0.00 | 0.00 | 0.00 | ||
| 20260903205946 | 87 | 104 | 1.7 | 3.5 | 0.00 | 0.00 | 0.00 | ||
| 20260903204943 | 87 | 125 | 7.8 | 7.8 | 0.00 | 0.00 | 0.00 | ||
| 20260903204444 | 88 | 132 | 3.5 | 6.1 | 0.00 | 0.00 | 0.00 | ||
| 20260903203942 | 87 | 83 | 5.2 | 1.7 | 0.00 | 0.00 | 0.00 | ||
| 20260903203443 | 87 | 118 | 4.3 | 2.6 | 0.00 | 0.00 | 0.00 | ||
| 20260903202941 | 87 | 120 | 5.2 | 6.1 | 0.00 | 0.00 | 0.00 | ||
| 20260903202442 | 87 | 134 | 5.2 | 7.0 | 0.00 | 0.00 | 0.00 | ||
| 20260903201940 | 87 | 114 | 4.3 | 4.3 | 0.00 | 0.00 | 0.00 | ||
| 20260903200937 | 88 | 124 | 5.2 | 7.8 | 0.00 | 0.00 | 0.00 | ||
| 20260903200438 | 88 | 104 | 3.5 | 1.7 | 0.00 | 0.00 | 0.00 | ||
| 20260903195437 | 88 | 121 | 7.0 | 7.8 | 0.00 | 0.00 | 0.00 | ||
| 20260903194935 | 88 | 122 | 7.8 | 5.2 | 0.00 | 0.00 | 0.00 | ||
| 20260903194436 | 89 | 159 | 6.1 | 3.5 | 0.00 | 0.00 | 0.00 | ||
| 20260903193434 | 88 | 39 | 0.9 | 0.0 | 0.00 | 0.00 | 0.00 | ||
| 20260903192932 | 89 | 111 | 5.2 | 3.5 | 0.00 | 0.00 | 0.00 | ||
| 20260903191931 | 89 | 94 | 7.8 | 5.2 | 0.00 | 0.00 | 0.00 | ||
| 20260903191432 | 89 | 128 | 3.5 | 3.5 | 0.00 | 0.00 | 0.00 | ||
| 20260903190930 | 88 | 104 | 6.1 | 1.7 | 0.00 | 0.00 | 0.00 | ||
| 20260903190431 | 89 | 143 | 6.1 | 4.3 | 0.00 | 0.00 | 0.00 | ||
| 20260903185929 | 89 | 93 | 3.5 | 8.7 | 0.00 | 0.00 | 0.00 | ||
| 20260903185430 | 89 | 115 | 3.5 | 4.3 | 0.00 | 0.00 | 0.00 | ||
| 20260903184927 | 89 | 100 | 7.0 | 4.3 | 0.00 | 0.00 | 0.00 | ||
| 20260903183927 | 89 | 143 | 3.5 | 3.5 | 0.00 | 0.00 | 0.00 | ||
| 20260903182926 | 88 | 129 | 6.1 | 7.0 | 0.00 | 0.00 | 0.00 | ||
| 20260903182426 | 89 | 141 | 5.2 | 4.3 | 0.00 | 0.00 | 0.00 | ||
| 20260903181924 | 89 | 138 | 5.2 | 3.5 | 0.00 | 0.00 | 0.00 | ||
| 20260903181424 | 88 | 121 | 6.1 | 7.0 | 0.00 | 0.00 | 0.00 | ||
| 20260903180920 | 88 | 115 | 6.1 | 7.8 | 0.00 | 0.00 | 0.00 | ||
| 20260903180420 | 89 | 143 | 6.1 | 7.8 | 0.00 | 0.00 | 0.00 | ||
| 20260903175920 | 88 | 46 | 0.9 | 0.0 | 0.00 | 0.00 | 0.00 | ||
| 20260903175420 | 88 | 128 | 6.1 | 5.2 | 0.00 | 0.00 | 0.00 | ||
| 20260903174916 | 88 | 139 | 6.1 | 5.2 | 0.00 | 0.00 | 0.00 | ||
| 20260903174417 | 87 | 142 | 4.3 | 4.3 | 0.00 | 0.00 | 0.00 | ||
| 20260903173915 | 88 | 148 | 6.1 | 7.0 | 0.00 | 0.00 | 0.00 | ||
| 20260903173417 | 88 | 146 | 6.1 | 6.1 | 0.00 | 0.00 | 0.00 | ||
| 20260903172914 | 88 | 135 | 6.1 | 6.1 | 0.00 | 0.00 | 0.00 | ||
| 20260903172415 | 88 | 165 | 4.3 | 6.1 | 0.00 | 0.00 | 0.00 | ||
| 20260903171911 | 89 | 148 | 6.1 | 6.1 | 0.00 | 0.00 | 0.00 | ||
| 20260903171410 | 89 | 148 | 8.7 | 6.1 | 0.00 | 0.00 | 0.00 | ||
| 20260903170906 | 88 | 141 | 7.0 | 6.1 | 0.00 | 0.00 | 0.00 | ||
| 20260903170407 | 89 | 149 | 6.1 | 7.8 | 0.00 | 0.00 | 0.00 | ||
| 20260903165904 | 89 | 82 | 4.3 | 5.2 | 0.00 | 0.00 | 0.00 | ||
| 20260903165405 | 87 | 107 | 7.0 | 7.0 | 0.00 | 0.00 | 0.00 | ||
| 20260903164405 | 88 | 96 | 3.5 | 2.6 | 0.00 | 0.00 | 0.00 | ||
| 20260903163902 | 88 | 131 | 3.5 | 6.1 | 0.00 | 0.00 | 0.00 | ||
| 20260903162357 | 89 | 110 | 4.3 | 3.5 | 0.00 | 0.00 | 0.00 | ||
| 20260903161855 | 89 | 136 | 3.5 | 6.1 | 0.00 | 0.00 | 0.00 | ||
| 20260903161357 | 89 | 121 | 3.5 | 5.2 | 0.00 | 0.00 | 0.00 | ||
| 20260903160852 | 89 | 160 | 0.9 | 2.6 | 0.00 | 0.00 | 0.00 | ||
| 20260903155850 | 89 | 134 | 3.5 | 4.3 | 0.00 | 0.00 | 0.00 | ||
| 20260903155351 | 88 | 152 | 3.5 | 3.5 | 0.00 | 0.00 | 0.00 | ||
| 20260903154848 | 88 | 152 | 0.9 | 1.7 | 0.00 | 0.00 | 0.00 | ||
| 20260903154349 | 88 | 153 | 5.2 | 2.6 | 0.00 | 0.00 | 0.00 | ||
| 20260903153845 | 89 | 139 | 3.5 | 5.2 | 0.00 | 0.00 | 0.00 | ||
| 20260903153346 | 88 | 100 | 1.7 | 2.6 | 0.00 | 0.00 | 0.00 | ||
| 20260903152844 | 87 | 131 | 1.7 | 0.0 | 0.00 | 0.00 | 0.00 | ||
| 20260903152345 | 87 | 104 | 2.6 | 2.6 | 0.00 | 0.00 | 0.00 | ||
| 20260903151843 | 88 | 129 | 2.6 | 4.3 | 0.00 | 0.00 | 0.00 | ||
| 20260903151344 | 88 | 138 | 3.5 | 4.3 | 0.00 | 0.00 | 0.00 | ||
| 20260903150842 | 87 | 134 | 7.0 | 5.2 | 0.00 | 0.00 | 0.00 | ||
| 20260903150346 | 87 | 143 | 2.6 | 2.6 | 0.00 | 0.00 | 0.00 | ||
| 20260903145841 | 87 | 73 | 0.9 | 0.9 | 0.00 | 0.00 | 0.00 | ||
| 20260903145557 | 83 | 52 | 0.0 | 0.0 | 0.00 | 0.00 | 0.00 | ||
| 20260903145555 | 83 | 52 | 0.0 | 0.0 | 0.00 | 0.00 | 0.00 | ||
| 20260903145441 | 83 | 52 | 0.0 | 0.0 | 0.00 | 0.00 | 0.00 | ||
| 20260903145439 | 83 | 52 | 0.0 | 0.0 | 0.00 | 0.00 | 0.00 | ||
| 20260903144837 | 86 | 89 | 3.5 | 1.7 | 0.00 | 0.00 | 0.00 | ||
| 20260903144337 | 87 | 82 | 0.0 | 0.9 | 0.00 | 0.00 | 0.00 | ||
| 20260903143832 | 86 | 156 | 1.7 | 2.6 | 0.00 | 0.00 | 0.00 | ||
| 20260903143333 | 86 | 63 | 1.7 | 2.6 | 0.00 | 0.00 | 0.00 | ||
| 20260903142831 | 85 | 115 | 1.7 | 0.9 | 0.00 | 0.00 | 0.00 | ||
| 20260903141829 | 85 | 89 | 0.9 | 1.7 | 0.00 | 0.00 | 0.00 | ||
| 20260903140826 | 83 | 105 | 0.9 | 0.9 | 0.00 | 0.00 | 0.00 | ||
| 20260903140326 | 84 | 56 | 0.0 | 0.0 | 0.00 | 0.00 | 0.00 | ||
| 20260903135821 | 84 | 60 | 0.9 | 0.9 | 0.00 | 0.00 | 0.00 | ||
| 20260903134820 | 83 | 52 | 0.0 | 0.0 | 0.00 | 0.00 | 0.00 | ||
| 20260903134409 | 83 | 52 | 0.0 | 0.0 | 0.00 | 0.00 | 0.00 | ||
| 20260903134321 | 83 | 52 | 0.0 | 0.0 | 0.00 | 0.00 | 0.00 | ||
| 20260903130626 | 81 | 70 | 1.7 | 1.7 | 0.00 | 0.00 | 0.00 | ||
| 20260903130552 | 81 | 70 | 1.7 | 1.7 | 0.00 | 0.00 | 0.00 | ||
| 20260903130514 | 81 | 70 | 1.7 | 1.7 | 0.00 | 0.00 | 0.00 | ||
| 20260903130315 | 81 | 70 | 1.7 | 1.7 | 0.00 | 0.00 | 0.00 | ||
| 20260903125933 | 81 | 69 | 0.9 | 1.7 | 0.00 | 0.00 | 0.00 | ||
| 20260903125809 | 81 | 69 | 0.9 | 1.7 | 0.00 | 0.00 | 0.00 | ||
| 20260903124712 | 78 | 46 | 0.0 | 0.0 | 0.00 | 0.00 | 0.00 | ||
| 20260903124617 | 78 | 46 | 0.0 | 0.0 | 0.00 | 0.00 | 0.00 | ||
| 20260903124545 | 78 | 46 | 0.0 | 0.0 | 0.00 | 0.00 | 0.00 | ||
| 20260903124309 | 80 | 51 | 0.0 | 0.0 | 0.00 | 0.00 | 0.00 | ||
| 20260903124011 | 80 | 46 | 0.0 | 0.0 | 0.00 | 0.00 | 0.00 | ||
| 20260903123945 | 80 | 46 | 0.0 | 0.0 | 0.00 | 0.00 | 0.00 | ||
| 20260903123932 | 80 | 46 | 0.0 | 0.0 | 0.00 | 0.00 | 0.00 | ||
| 20260903123851 | 80 | 46 | 0.0 | 0.0 | 0.00 | 0.00 | 0.00 | ||
| 20260903123808 | 80 | 46 | 0.0 | 0.0 | 0.00 | 0.00 | 0.00 | ||
| 20260903123308 | 80 | 46 | 0.0 | 0.0 | 0.00 | 0.00 | 0.00 | ||
| 20260903123044 | 79 | 46 | 0.0 | 0.0 | 0.00 | 0.00 | 0.00 | ||
| 20260903123012 | 79 | 46 | 0.0 | 0.0 | 0.00 | 0.00 | 0.00 | ||
| 20260903122803 | 79 | 46 | 0.0 | 0.0 | 0.00 | 0.00 | 0.00 | ||
| 20260903121303 | 78 | 46 | 0.0 | 0.0 | 0.00 | 0.00 | 0.00 | ||
| 20260903121011 | 78 | 46 | 0.0 | 0.0 | 0.00 | 0.00 | 0.00 | ||
| 20260903120759 | 78 | 46 | 0.0 | 0.0 | 0.00 | 0.00 | 0.00 | ||
| 20260903120527 | 76 | 46 | 0.0 | 0.0 | 0.00 | 0.00 | 0.00 | ||
| 20260903120247 | 76 | 46 | 0.0 | 0.0 | 0.00 | 0.00 | 0.00 | ||
| 20260903114748 | 77 | 46 | 0.0 | 0.0 | 0.00 | 0.00 | 0.00 | ||
| 20260903113825 | 76 | 46 | 0.0 | 0.0 | 0.00 | 0.00 | 0.00 | ||
| 20260903113743 | 76 | 46 | 0.0 | 0.0 | 0.00 | 0.00 | 0.00 | ||
| 20260903113319 | 76 | 46 | 0.0 | 0.0 | 0.00 | 0.00 | 0.00 | ||
| 20260903113244 | 76 | 46 | 0.0 | 0.0 | 0.00 | 0.00 | 0.00 | ||
| 20260903113148 | 76 | 46 | 0.0 | 0.0 | 0.00 | 0.00 | 0.00 | ||
| 20260903113111 | 76 | 46 | 0.0 | 0.0 | 0.00 | 0.00 | 0.00 | ||
| 20260903112741 | 76 | 46 | 0.0 | 0.0 | 0.00 | 0.00 | 0.00 | ||
| 20260903112258 | 75 | 46 | 0.0 | 0.0 | 0.00 | 0.00 | 0.00 | ||
| 20260903111832 | 75 | 46 | 0.0 | 0.0 | 0.00 | 0.00 | 0.00 | ||
| 20260903111741 | 75 | 46 | 0.0 | 0.0 | 0.00 | 0.00 | 0.00 | ||
| 20260903111317 | 76 | 46 | 0.0 | 0.0 | 0.00 | 0.00 | 0.00 | ||
| 20260903111242 | 76 | 46 | 0.0 | 0.0 | 0.00 | 0.00 | 0.00 | ||
| 20260903093212 | 76 | 46 | 0.0 | 0.0 | 0.00 | 0.00 | 0.00 | ||
| 20260903092250 | 76 | 46 | 0.0 | 0.0 | 0.00 | 0.00 | 0.00 | ||
| 20260903092212 | 76 | 46 | 0.0 | 0.0 | 0.00 | 0.00 | 0.00 | ||
| 20260903084154 | 76 | 46 | 0.0 | 0.0 | 0.00 | 0.00 | 0.00 | ||
| 20260903083732 | 76 | 46 | 0.0 | 0.0 | 0.00 | 0.00 | 0.00 | ||
| 20260903083647 | 76 | 46 | 0.0 | 0.0 | 0.00 | 0.00 | 0.00 | ||
| 20260903080643 | 76 | 46 | 0.0 | 0.0 | 0.00 | 0.00 | 0.00 | ||
| 20260903080136 | 76 | 46 | 0.0 | 0.0 | 0.00 | 0.00 | 0.00 | ||
| 20260903075259 | 76 | 46 | 0.0 | 0.0 | 0.00 | 0.00 | 0.00 | ||
| 20260903075228 | 76 | 46 | 0.0 | 0.0 | 0.00 | 0.00 | 0.00 | ||
| 20260903075219 | 76 | 46 | 0.0 | 0.0 | 0.00 | 0.00 | 0.00 | ||
| 20260903075136 | 76 | 46 | 0.0 | 0.0 | 0.00 | 0.00 | 0.00 | ||
| 20260903075112 | 76 | 46 | 0.0 | 0.0 | 0.00 | 0.00 | 0.00 | ||
| 20260903075040 | 76 | 46 | 0.0 | 0.0 | 0.00 | 0.00 | 0.00 | ||
| 20260903074631 | 76 | 46 | 0.0 | 0.0 | 0.00 | 0.00 | 0.00 | ||
| 20260903071618 | 76 | 46 | 0.0 | 0.0 | 0.00 | 0.00 | 0.00 | ||
| 20260903070806 | 76 | 46 | 0.0 | 0.0 | 0.00 | 0.00 | 0.00 | ||
| 20260903070613 | 76 | 46 | 0.0 | 0.0 | 0.00 | 0.00 | 0.00 | ||
| 20260903065119 | 76 | 46 | 0.0 | 0.0 | 0.00 | 0.00 | 0.00 | ||
| 20260903064651 | 77 | 46 | 0.0 | 0.0 | 0.00 | 0.00 | 0.00 | ||
| 20260903064608 | 77 | 46 | 0.0 | 0.0 | 0.00 | 0.00 | 0.00 | ||
| 20260903064140 | 76 | 46 | 0.0 | 0.0 | 0.00 | 0.00 | 0.00 | ||
| 20260903064108 | 76 | 46 | 0.0 | 0.0 | 0.00 | 0.00 | 0.00 | ||
| 20260903052821 | 76 | 46 | 0.0 | 0.0 | 0.00 | 0.00 | 0.00 | ||
| 20260903052748 | 76 | 46 | 0.0 | 0.0 | 0.00 | 0.00 | 0.00 | ||
| 20260903052746 | 76 | 46 | 0.0 | 0.0 | 0.00 | 0.00 | 0.00 | ||
| 20260903051115 | 76 | 46 | 0.0 | 0.0 | 0.00 | 0.00 | 0.00 | ||
| 20260903051043 | 76 | 46 | 0.0 | 0.0 | 0.00 | 0.00 | 0.00 | ||
| 20260903050539 | 76 | 46 | 0.0 | 0.0 | 0.00 | 0.00 | 0.00 | ||
| 20260903045537 | 77 | 46 | 0.0 | 0.0 | 0.00 | 0.00 | 0.00 | ||
| 20260903045037 | 77 | 46 | 0.0 | 0.0 | 0.00 | 0.00 | 0.00 | ||
| 20260903044614 | 77 | 46 | 0.0 | 0.0 | 0.00 | 0.00 | 0.00 | ||
| 20260903044611 | 77 | 46 | 0.0 | 0.0 | 0.00 | 0.00 | 0.00 | ||
| 20260903044536 | 77 | 46 | 0.0 | 0.0 | 0.00 | 0.00 | 0.00 | ||
| 20260903044533 | 77 | 46 | 0.0 | 0.0 | 0.00 | 0.00 | 0.00 | ||
| 20260903044033 | 77 | 46 | 0.0 | 0.0 | 0.00 | 0.00 | 0.00 | ||
| 20260903043530 | 77 | 46 | 0.0 | 0.0 | 0.00 | 0.00 | 0.00 | ||
| 20260903042914 | 77 | 46 | 0.0 | 0.0 | 0.00 | 0.00 | 0.00 | ||
| 20260903042600 | 77 | 46 | 0.0 | 0.0 | 0.00 | 0.00 | 0.00 | ||
| 20260903042528 | 77 | 46 | 0.0 | 0.0 | 0.00 | 0.00 | 0.00 | ||
| 20260903042028 | 77 | 46 | 0.0 | 0.0 | 0.00 | 0.00 | 0.00 | ||
| 20260903041524 | 77 | 46 | 0.0 | 0.0 | 0.00 | 0.00 | 0.00 | ||
| 20260903041025 | 77 | 46 | 0.0 | 0.0 | 0.00 | 0.00 | 0.00 | ||
| 20260903040735 | 77 | 65 | 0.9 | 0.9 | 0.00 | 0.00 | 0.00 | ||
| 20260903040517 | 77 | 65 | 0.9 | 0.9 | 0.00 | 0.00 | 0.00 | ||
| 20260903040018 | 77 | 75 | 1.7 | 0.9 | 0.00 | 0.00 | 0.00 | ||
| 20260903035007 | 78 | 83 | 0.0 | 0.0 | 0.00 | 0.00 | 0.00 | ||
| 20260903034503 | 77 | 83 | 0.0 | 0.0 | 0.00 | 0.00 | 0.00 | ||
| 20260903034003 | 77 | 83 | 0.0 | 0.0 | 0.00 | 0.00 | 0.00 | ||
| 20260903032959 | 77 | 83 | 0.0 | 0.0 | 0.00 | 0.00 | 0.00 | ||
| 20260903032455 | 77 | 83 | 0.0 | 0.0 | 0.00 | 0.00 | 0.00 | ||
| 20260903031955 | 77 | 83 | 0.0 | 0.0 | 0.00 | 0.00 | 0.00 | ||
| 20260903031525 | 78 | 83 | 0.0 | 0.0 | 0.00 | 0.00 | 0.00 | ||
| 20260903031452 | 78 | 83 | 0.0 | 0.0 | 0.00 | 0.00 | 0.00 | ||
| 20260903030953 | 77 | 83 | 0.0 | 0.0 | 0.00 | 0.00 | 0.00 | ||
| 20260903030449 | 78 | 83 | 0.0 | 0.0 | 0.00 | 0.00 | 0.00 | ||
| 20260903030038 | 78 | 83 | 0.0 | 0.0 | 0.00 | 0.00 | 0.00 | ||
| 20260903025950 | 78 | 83 | 0.0 | 0.0 | 0.00 | 0.00 | 0.00 | ||
| 20260903025702 | 78 | 83 | 0.0 | 0.0 | 0.00 | 0.00 | 0.00 | ||
| 20260903025447 | 78 | 83 | 0.0 | 0.0 | 0.00 | 0.00 | 0.00 | ||
| 20260903024948 | 78 | 83 | 0.0 | 0.0 | 0.00 | 0.00 | 0.00 | ||
| 20260903024835 | 78 | 83 | 0.0 | 0.0 | 0.00 | 0.00 | 0.00 | ||
| 20260903024445 | 78 | 83 | 0.0 | 0.0 | 0.00 | 0.00 | 0.00 |